COSMOS 1275 DEB, 13468

Orbit data source: Space-Track

COSMOS 1275 DEB, 13468 is space debris in LEO originally from a launch on Thu, 04 Jun 1981 UTC launched from the Plesetsk Missile And Space Complex (PKMTR). Debris objects in space refer to the collection of defunct objects orbiting the Earth. Examples of debris include non-operational satellites, rocket bodies, and fragments generated from explosions, collisions, or faulty payload assembly.

Loading next visibility...
Identifier
13468, 1981-053FQ
Orbit
LEO
Country
Flag of CISCIS
Related business
Manufacturer
Unknown
Mission
Spacecraft
Bus & Motor
Unknown
Mass
Unknown
Launch date (UTC)
1981-06-04 (45 years ago)
Launch vehicle
Unknown
Launch site
Plesetsk Missile And Space Complex (PKMTR)
Object type
Payload
Rocket body
Debris
Shape & HBR
Unknown shape, 0.1 m
Radar Cross Section
Medium (>0.1 m² and <1 m²)

Expand to show TLE details & history
Last TLE update: 17 hours ago

TLE from 17 hours ago
0 COSMOS 1275 DEB
1 13468U 81053FQ  26255.54523562  .00000866  00000-0  64198-3 0  9992
2 13468  82.6999  79.6186 0061824 300.3404 114.9295 13.93301801229237
Epoch: 2026-09-12T13:05Z
TLE epoch observation values (Epoch: 2026-09-12T13:05:08.357Z)
Latitude
55.32769°
Longitude
-97.60255°
Altitude
945.501 km
Speed
7.374 km/s
True Right ascension
06h 00m 56s
True Declination
55° 10' 15"
Sunlit
Object was in daylight at epoch
Visualization orbit readout
Latitude
Unknown
Longitude
Unknown
Altitude
Unknown
Speed
Unknown
Apparent Right ascension
Unknown
Apparent Declination
Unknown
Sunlit
N/A
Visualization observer readout
Local Sidereal Time
22:23:41
Azimuth
Unknown
Elevation
Unknown
Doppler factor
Unknown
Orbital elements
Apogee altitude
959.3 km
Perigee altitude
869.131 km
Semi-major axis
7,292.353 km
Eccentricity
0.00618
Inclination
82.6999°
RAAN
79.6186°
Arg. of periapsis
300.3404°
True anomaly
115.56984°
Mean anomaly
114.9295°
Eccentric anomaly
115.24988°
Mean motion
3.48531 °/min
Orbital period
103.29 mins
BSTAR
0.00064198
Loading maneuver chart data...
Computing Atmospheric mass density...
Loading historical data...
Loading historical data...
Loading historical data...
Loading historical data...
Loading historical data...
Loading historical data...
Loading historical data...

Documentation

Showing up to 5 results
|